This demonstration page uses our WeatherBlox Daily Observations layout. Learn more.

Left ArrowRight Arrow

Hourly Observations for August 15, 2022

Temp ( °F °C ) Dew Point ( °F °C ) Humidity (%) Winds ( mph kmh ) Pressure ( in mb ) Visibility ( mi km ) Precip ( " mm )
12:52 am 00:52 Clear 77 25 72 22.2 84 84 NNE 5 7 29.92 1013 10 16 0.00 0.00
1:52 am 01:52 Clear 77 25 73 22.8 88 88 ENE 6 9 29.92 1013 10 16 0.00 0.00
2:52 am 02:52 Clear 75 23.9 72 22.2 90 90 Calm 29.91 1013 10 16 0.00 0.00
3:52 am 03:52 Clear 75 23.9 72 22.2 90 90 E 3 6 29.91 1013 10 16 0.00 0.00
4:52 am 04:52 Clear 74 23.3 71 21.7 91 91 ENE 5 7 29.92 1013 10 16 0.00 0.00
5:52 am 05:52 Clear 73 22.8 70 21.1 90 90 ESE 5 7 29.93 1013 10 16 0.00 0.00
6:52 am 06:52 Sunny 72 22.2 70 21.1 93 93 ESE 5 7 29.93 1014 8 13 0.00 0.00
7:52 am 07:52 Sunny 74 23.3 71 21.7 91 91 E 5 7 29.95 1014 9 14 0.00 0.00
8:52 am 08:52 Sunny 77 25 71 21.7 82 82 SE 7 11 29.96 1014 10 16 0.00 0.00
9:52 am 09:52 Sunny 80 26.7 72 22.2 76 76 SE 6 9 29.96 1014 10 16 0.00 0.00
10:52 am 10:52 Sunny 84 28.9 73 22.8 70 70 VRB 3 6 29.96 1015 10 16 0.00 0.00
11:52 am 11:52 Sunny 87 30.6 72 22.2 61 61 SSW 5 7 29.95 1014 10 16 0.00 0.00
12:52 pm 12:52 Sunny 91 32.8 69 20.6 49 49 W 5 7 29.94 1014 10 16 0.00 0.00
1:52 pm 13:52 Sunny 92 33.3 69 20.6 47 47 VRB 3 6 29.93 1013 10 16 0.00 0.00
2:52 pm 14:52 Sunny 93 33.9 68 20 44 44 VRB 3 6 29.91 1013 10 16 0.00 0.00
3:52 pm 15:52 Sunny 94 34.4 68 20 43 43 VRB 5 7 29.89 1012 10 16 0.00 0.00
4:52 pm 16:52 Sunny 94 34.4 69 20.6 45 45 VRB 5 7 29.87 1012 10 16 0.00 0.00
5:52 pm 17:52 Sunny 92 33.3 70 21.1 49 49 NNE 9 15 29.88 1012 10 16 0.00 0.00
6:52 pm 18:52 Sunny 89 31.7 69 20.6 52 52 E 13 20 29.88 1012 10 16 0.00 0.00
7:52 pm 19:52 Mostly Sunny 86 30 68 20 55 55 NE 10 17 29.89 1012 10 16 0.00 0.00
8:52 pm 20:52 Clear 83 28.3 65 18.3 55 55 E 10 17 29.90 1013 10 16 0.00 0.00
9:52 pm 21:52 Clear 81 27.2 65 18.3 58 58 E 15 24 29.92 1013 10 16 0.00 0.00
10:52 pm 22:52 Clear 79 26.1 66 18.9 65 65 E 13 20 29.93 1013 10 16 0.00 0.00
11:52 pm 23:52 Clear 77 25 67 19.4 71 71 ESE 14 22 29.92 1013 10 16 0.00 0.00

Powered by AerisWeather